Location: Poughquag
(41.6090°N, 73.6820°W)
Time: 04:54:42
(UTC-04:00)

ACS3 Solar Sail - Pass Details

Date: 20 June 2024
Orbit: 993 x 1022 km, 97.4° (Epoch: 23 July)

Event Time Altitude Azimuth Distance (km) Brightness Sun altitude
Exits shadow 23:07:24 20° 202° (SSW) 2,110 6.2 -20.2°
Maximum altitude 23:11:21 44° 264° (W) 1,351 5.6 -20.5°
Drops below altitude 10° 23:17:16 10° 335° (NNW) 2,768 8.4 -21.0°
Sets 23:19:54 0° 342° (NNW) 3,720 9.4 -21.2°
